Retour au catalogue

STARLINK-11677

ActifCommunicationsVLEO
NORAD 63751·PAYLOAD·🇺🇸 United States

Lancé Apr 29, 2025 depuis Cape Canaveral Space Force Station

Loading…

Prochains Passages (prochaines 24 heures)

TLE

FraisSource: CelesTrak SupGP

Époque: Sep 14, 2026, 21:33 UTC

1 63751C 25089A   26257.89840278  .00054266  00000+0  42163-3 0  2572
2 63751  43.0006 232.0687 0001486 264.2223 311.6358 15.70803786    18

Suivez STARLINK-11677 en temps réel avec AllMySat

Download on the App Store